This is the latest recevied weather packets stored in our database for station/object OK4ZAW-16. If no packets are shown the sender has not sent any weather packets the latest 10 day(s).
| Time | Temp. | Humidity | Pressure | Rain* | Wind** | Luminosity | Snow |
|---|---|---|---|---|---|---|---|
| 1777983017 | 18.33° C | 69% | 1010.7 hPa | - | - | 150 W/m² | - |
| 1777982599 | 18.33° C | 70% | 1010.7 hPa | - | - | 150 W/m² | - |
| 1777981764 | 17.78° C | 73% | 1010.5 hPa | - | - | 150 W/m² | - |
| 1777981346 | 17.78° C | 74% | 1010.6 hPa | - | - | 150 W/m² | - |
| 1777980929 | 17.78° C | 70% | 1010.6 hPa | - | - | 150 W/m² | - |
| 1777980511 | 17.78° C | 73% | 1010.6 hPa | - | - | 150 W/m² | - |
| 1777980093 | 17.78° C | 77% | 1010.7 hPa | - | - | 150 W/m² | - |
| 1777979676 | 17.22° C | 72% | 1010.8 hPa | - | - | 150 W/m² | - |
| 1777979258 | 17.22° C | 70% | 1010.8 hPa | - | - | 150 W/m² | - |
| 1777978841 | 17.78° C | 66% | 1010.8 hPa | - | - | 150 W/m² | - |
| 1777978423 | 17.78° C | 65% | 1010.8 hPa | - | - | 150 W/m² | - |
| 1777978006 | 17.78° C | 63% | 1010.8 hPa | - | - | 150 W/m² | - |
| 1777977588 | 17.78° C | 65% | 1010.8 hPa | - | - | 150 W/m² | - |
| 1777977170 | 17.78° C | 62% | 1010.9 hPa | - | - | 150 W/m² | - |
| 1777976753 | 17.78° C | 65% | 1010.9 hPa | - | - | 150 W/m² | - |
| 1777976335 | 17.78° C | 64% | 1010.8 hPa | - | - | 150 W/m² | - |
| 1777975918 | 17.78° C | 64% | 1010.8 hPa | - | - | 150 W/m² | - |
| 1777975500 | 17.78° C | 64% | 1010.7 hPa | - | - | 150 W/m² | - |
| 1777975082 | 17.22° C | 63% | 1010.8 hPa | - | - | 150 W/m² | - |
| 1777974665 | 17.22° C | 61% | 1010.8 hPa | - | - | 150 W/m² | - |
| 1777974247 | 17.22° C | 56% | 1011 hPa | - | - | 150 W/m² | - |
| 1777973830 | 17.22° C | 55% | 1010.9 hPa | - | - | 150 W/m² | - |
| 1777973412 | 16.67° C | 58% | 1011 hPa | - | - | 150 W/m² | - |
| 1777972995 | 16.67° C | 60% | 1011 hPa | - | - | 150 W/m² | - |
| 1777972577 | 16.67° C | 61% | 1011 hPa | - | - | 150 W/m² | - |
* Rain since midnight (hover to see other rain measurements)
** Current wind speed in m/s (hover to see current wind gust speed)